BEIDOU-3 M22

Last updated on Sun Jun 21 2026 00:02:55 GMT+0000 (Coordinated Universal Time)

1 44793U 19078A 26171.30405669 -.00000090 00000+0 00000+0 0 9990 2 44793 53.9328 299.7182 0006301 50.9808 309.0727 1.86227062 44704
UTC large
Height (km)
Speed (km/s)
/
Latitude / Longitude
Inclination (degrees)
Orbital Period (minutes)
Azimuth
Elevation
Range (km)
Doppler Factor

Next 0 passes for location: London (51.5072 / 0.1276)

No passes found over London.
BEIDOU-3 M22